SNEZKA Weather Reports


time (UTC)temp
C
wind
direction
speed
KPH
gust
KPH
rain 1hr
cm
rain 24hr
cm
rain mn
cm
humidity
%
barometer
mb
20260831152001 10 200 41.8 83.7 0.00 0.00 0.00 99
20260831142058 10 200 29.0 57.9 0.00 0.00 0.00 99
20260831132059 10 220 35.4 69.2 0.00 0.00 0.00 93
20260831122000 10 200 46.7 95.0 0.00 0.00 0.00 99
20260831112058 10 230 19.3 41.8 0.00 0.00 0.00 99
20260831102301 10 190 22.5 38.6 0.00 0.00 0.00 99
20260831091959 10 210 22.5 38.6 0.00 0.00 0.00 99
20260831082148 11 200 32.2 49.9 0.00 0.00 0.00 93
20260831072203 11 210 29.0 49.9 0.00 0.00 0.00 93
20260831062103 10 210 22.5 46.7 0.00 0.00 0.00 99
20260831052215 10 260 14.5 35.4 0.00 0.00 0.00 87
20260831042259 10 170 38.6 0.0 0.00 0.00 0.00 81
20260831031958 11 190 35.4 53.1 0.00 0.00 0.00 81
20260831022059 11 200 29.0 53.1 0.00 0.00 0.00 81
20260831012059 11 210 25.7 49.9 0.00 0.00 0.00 76
20260831001958 11 200 32.2 57.9 0.00 0.00 0.00 71
20260830232158 12 210 29.0 53.1 0.00 0.00 0.00 71
20260830222200 12 190 25.7 53.1 0.00 0.00 0.00 71
20260830211959 12 170 22.5 41.8 0.00 0.00 0.00 66
20260830202157 12 200 22.5 46.7 0.00 0.00 0.00 76
20260830192058 12 200 22.5 46.7 0.00 0.00 0.00 76
20260830182000 12 180 19.3 46.7 0.00 0.00 0.00 76
20260830172158 12 100 14.5 38.6 0.00 0.00 0.00 76
20260830162100 12 290 19.3 46.7 0.00 0.00 0.00 66